TimeEDT,TemperatureF,Dew PointF,Humidity,Sea Level PressureIn,VisibilityMPH,Wind Direction,Wind SpeedMPH,Gust SpeedMPH,PrecipitationIn,Events,Conditions,WindDirDegrees,DateUTC
12:54 AM,73.0,66.9,81,29.83,10.0,NW,3.5,-,N/A,,Overcast,320,2008-08-01 04:54:00
1:01 AM,73.4,66.2,78,29.93,10.0,NNW,5.8,-,N/A,,Overcast,340,2008-08-01 05:01:00
1:54 AM,71.1,68.0,90,29.84,10.0,NNW,5.8,-,N/A,,Scattered Clouds,330,2008-08-01 05:54:00
2:54 AM,72.0,68.0,87,29.83,10.0,NNW,8.1,-,N/A,,Clear,340,2008-08-01 06:54:00
3:54 AM,70.0,68.0,93,29.83,10.0,NNW,8.1,-,N/A,,Clear,340,2008-08-01 07:54:00
4:34 AM,69.8,68.0,94,29.92,10.0,North,8.1,-,N/A,,Partly Cloudy,350,2008-08-01 08:34:00
4:54 AM,70.0,66.9,90,29.83,10.0,North,11.5,-,N/A,,Partly Cloudy,350,2008-08-01 08:54:00
5:29 AM,69.8,66.2,88,29.92,10.0,NNW,6.9,-,N/A,,Mostly Cloudy,330,2008-08-01 09:29:00
5:54 AM,69.1,66.9,93,29.84,10.0,NNW,8.1,-,N/A,,Mostly Cloudy,340,2008-08-01 09:54:00
6:10 AM,69.8,66.2,88,29.93,10.0,NNW,9.2,-,N/A,,Scattered Clouds,340,2008-08-01 10:10:00
6:54 AM,69.1,66.9,93,29.86,10.0,North,6.9,-,N/A,,Clear,350,2008-08-01 10:54:00
7:54 AM,70.0,66.9,90,29.87,9.0,North,8.1,-,N/A,,Clear,350,2008-08-01 11:54:00
8:54 AM,73.9,66.0,76,29.89,10.0,NNW,9.2,-,N/A,,Clear,330,2008-08-01 12:54:00
9:54 AM,75.9,64.9,69,29.90,10.0,NNW,10.4,-,N/A,,Partly Cloudy,340,2008-08-01 13:54:00
10:54 AM,79.0,63.0,58,29.91,10.0,North,10.4,-,N/A,,Partly Cloudy,350,2008-08-01 14:54:00
11:54 AM,81.0,62.1,52,29.91,10.0,North,9.2,-,N/A,,Clear,350,2008-08-01 15:54:00
12:54 PM,84.9,62.1,46,29.90,10.0,NW,15.0,-,N/A,,Clear,320,2008-08-01 16:54:00
1:54 PM,86.0,61.0,43,29.89,10.0,NW,11.5,-,N/A,,Clear,310,2008-08-01 17:54:00
2:54 PM,87.8,60.8,40,29.97,10.0,NNW,13.8,-,N/A,,Clear,340,2008-08-01 18:54:00
3:54 PM,87.1,57.9,37,29.87,10.0,NNW,15.0,19.6,N/A,,Clear,340,2008-08-01 19:54:00
4:54 PM,87.1,59.0,39,29.87,10.0,NNW,16.1,-,N/A,,Clear,330,2008-08-01 20:54:00
5:54 PM,86.0,59.0,40,29.86,10.0,NNW,12.7,-,N/A,,Clear,340,2008-08-01 21:54:00
6:54 PM,84.9,60.1,43,29.85,10.0,NNW,11.5,-,N/A,,Clear,340,2008-08-01 22:54:00
7:54 PM,82.0,61.0,49,29.86,10.0,NNW,9.2,-,N/A,,Clear,330,2008-08-01 23:54:00
8:54 PM,78.1,62.1,58,29.86,10.0,NNW,6.9,-,N/A,,Clear,330,2008-08-02 00:54:00
9:54 PM,75.0,62.1,64,29.89,10.0,NNW,5.8,-,N/A,,Clear,330,2008-08-02 01:54:00
10:54 PM,73.0,62.1,68,29.92,10.0,NNW,4.6,-,N/A,,Partly Cloudy,330,2008-08-02 02:54:00
11:54 PM,70.0,62.1,76,29.91,10.0,Calm,Calm,-,N/A,,Partly Cloudy,0,2008-08-02 03:54:00